[[{"header":{"parameterUnit":"m.s-1","parameterCategory":2,"la1":30.2991,"la2":30.254,"lo1":-89.0895,"lo2":-89.0444,"dy":0.0017,"dx":0.0017,"nx":28,"ny":28,"refTime":"2025-02-07T03:00:00:Z","depth":"0","parameterNumber":2,"parameterNumberName":"U-component_of_CURRENTS"},"data":[0,0,0,0,0,0,0,0,0,0,0,0,0,0,0,0,0,0,0,0,0,0,0,0,0,0,0,0,0,0,0,0,0,0,0,0,0,0,0,0,0,0,0,0,0,0,0,0,0,0,0,0,0,0,0,0,0,0,-0.241,-0.2411,0,-0.2483,-0.2484,-0.2484,-0.2511,-0.2511,-0.2511,-0.2511,-0.2515,-0.2515,-0.2515,0,0,0,0,0,0,0,0,0,0,0,0,0,-0.2269,-0.2271,-0.2409,-0.2411,-0.2412,-0.2483,-0.2484,-0.2485,-0.2511,-0.2511,-0.2511,-0.2511,-0.2515,-0.2515,-0.2515,0,0,0,0,0,0,0,0,0,0,0,0,0,-0.2331,-0.2272,-0.2409,-0.2437,-0.244,-0.2483,-0.2484,-0.2485,-0.2511,-0.2511,-0.2511,-0.2511,-0.2515,-0.2515,-0.2515,-0.2512,0,0,-0.2515,-0.2515,0,0,0,0,0,0,0,0,-0.2327,-0.2336,-0.2431,-0.2435,-0.2439,-0.2492,-0.2436,-0.2492,-0.2511,-0.248,-0.2511,-0.2511,-0.2503,-0.2505,-0.2513,-0.2512,-0.2512,-0.2515,-0.2515,-0.2515,-0.2515,0,0,0,0,0,0,0,-0.2323,-0.2333,-0.2435,-0.2433,-0.2438,-0.2438,-0.2447,-0.2447,-0.2485,-0.2482,-0.2485,-0.25,-0.2505,-0.2513,-0.2513,-0.2513,-0.2515,-0.2515,-0.2515,-0.2515,-0.248,-0.2479,0,0,0,0,0,0,-0.2324,-0.2329,-0.2432,-0.2437,-0.2387,-0.2441,-0.245,-0.2471,-0.2487,-0.2491,-0.25,-0.2501,-0.2513,-0.2513,-0.2513,-0.2508,-0.2515,-0.2515,-0.2515,-0.2481,-0.248,-0.2479,0,0,0,0,0,0,-0.2321,-0.2333,-0.2429,-0.2387,-0.24,-0.2444,-0.2466,-0.2473,-0.2483,-0.2502,-0.2504,-0.2505,-0.2513,-0.2513,-0.2511,-0.2509,-0.2515,-0.2515,-0.2482,-0.2481,-0.2479,-0.2499,0,0,0,0,0,0,-0.2316,-0.2331,-0.2336,-0.2388,-0.2403,-0.2448,-0.2467,-0.2474,-0.2494,-0.2496,-0.2506,-0.2507,-0.2513,-0.2511,-0.2511,-0.2509,-0.2515,-0.2483,-0.2481,-0.248,-0.2499,-0.2498,-0.2497,0,0,0,0,0,-0.2311,-0.2323,-0.2336,-0.2348,-0.2412,-0.2449,-0.2455,-0.2484,-0.2494,-0.2494,-0.2503,-0.2507,-0.2499,-0.2511,-0.2511,-0.2508,-0.2484,-0.2482,-0.248,-0.25,-0.2498,-0.2497,0,0,0,0,0,0,-0.2267,-0.2329,-0.2344,-0.2374,-0.2405,-0.2454,-0.2461,-0.2482,-0.2491,-0.2491,-0.2503,-0.2504,-0.2501,-0.2494,-0.2507,-0.2488,-0.2489,-0.2486,-0.2503,-0.2502,-0.2501,-0.2507,-0.2515,0,0,0,0,0,-0.226,-0.2281,-0.2337,-0.2357,-0.2373,-0.2414,-0.2431,-0.2453,-0.2476,-0.2481,-0.2489,-0.249,-0.2491,-0.249,-0.2487,-0.2481,-0.247,-0.2473,-0.2472,-0.2472,-0.2474,-0.2459,-0.2457,-0.2472,-0.2472,-0.2472,0,0,-0.2248,-0.2284,-0.2297,-0.2348,-0.2374,-0.2403,-0.2423,-0.245,-0.247,-0.2478,-0.249,-0.2489,-0.2488,-0.2485,-0.2481,-0.2481,-0.2457,-0.2469,-0.2469,-0.2471,-0.2456,-0.2455,-0.2454,-0.247,-0.2471,-0.2471,0,0,-0.2242,-0.2268,-0.2286,-0.2314,-0.2359,-0.2386,-0.2394,-0.2438,-0.245,-0.2464,-0.2473,-0.2472,-0.2471,-0.2476,-0.2477,-0.2464,-0.2454,-0.2453,-0.2455,-0.2441,-0.244,-0.2439,-0.2413,-0.241,-0.2451,-0.2451,-0.2451,0,-0.2224,-0.2262,-0.2293,-0.2322,-0.2346,-0.2379,-0.2404,-0.2424,-0.2459,-0.2465,-0.2464,-0.2468,-0.247,-0.2475,-0.2472,-0.2465,-0.2448,-0.2467,-0.2442,-0.2441,-0.244,-0.2413,-0.241,-0.2451,-0.2451,-0.2451,-0.2451,0,-0.2238,-0.2267,-0.2279,-0.2328,-0.2351,-0.2375,-0.2417,-0.2429,-0.2443,-0.2463,-0.2464,-0.2465,-0.2467,-0.2463,-0.2469,-0.2459,-0.2445,-0.2447,-0.2452,-0.244,-0.2412,-0.2408,-0.2452,-0.2452,-0.2452,-0.2452,0,0,-0.22,-0.2275,-0.2277,-0.2302,-0.2357,-0.2379,-0.2407,-0.2439,-0.2456,-0.2464,-0.2476,-0.2477,-0.2473,-0.2473,-0.2471,-0.246,-0.244,-0.245,-0.2449,-0.2436,-0.2394,-0.2314,-0.2302,-0.2437,-0.2437,-0.2436,-0.2374,0,-0.2198,-0.2249,-0.2287,-0.2325,-0.2354,-0.2392,-0.2417,-0.2447,-0.2463,-0.2478,-0.2477,-0.2483,-0.2478,-0.2476,-0.2466,-0.2455,-0.2431,-0.2456,-0.2397,-0.2395,-0.2336,-0.2295,-0.2204,-0.2135,-0.237,-0.237,-0.2369,0,-0.2195,-0.2231,-0.2272,-0.2332,-0.2346,-0.237,-0.2408,-0.2437,-0.2467,-0.2478,-0.2482,-0.2486,-0.2481,-0.2473,-0.2438,-0.2452,-0.242,-0.2403,-0.24,-0.2318,-0.2307,-0.2185,-0.2118,-0.2105,-0.2363,-0.2363,-0.2364,0,-0.2147,-0.2216,-0.2245,-0.2267,-0.2339,-0.2353,-0.2385,-0.2426,-0.2444,-0.2474,-0.248,-0.2481,-0.2472,-0.2446,-0.2411,-0.2424,-0.236,-0.2374,-0.2265,-0.226,-0.2165,-0.2151,-0.2089,-0.233,-0.233,-0.2331,-0.2331,0,-0.2129,-0.2148,-0.2224,-0.2238,-0.2261,-0.2324,-0.2344,-0.2379,-0.2421,-0.2431,-0.2467,-0.2462,-0.2463,-0.2432,-0.2404,-0.2311,-0.2348,-0.2251,-0.2233,-0.2166,-0.2153,-0.2124,-0.2157,-0.2328,-0.2329,-0.2329,-0.233,0,-0.2065,-0.2122,-0.2152,-0.2222,-0.2239,-0.2251,-0.2312,-0.2326,-0.238,-0.2393,-0.24,-0.2435,-0.2394,-0.2374,-0.2327,-0.2281,-0.2176,-0.2174,-0.2087,-0.2059,-0.1941,-0.1979,-0.1906,-0.1847,-0.2044,-0.2042,-0.204,0,-0.2035,-0.2046,-0.2113,-0.2124,-0.215,-0.2183,-0.2203,-0.2282,-0.2303,-0.2363,-0.2358,-0.2346,-0.23,-0.2206,-0.2134,-0.2044,-0.2067,-0.1916,-0.1921,-0.1903,-0.1933,-0.1973,-0.1932,-0.1804,-0.18,-0.1797,-0.1794,0,-0.1959,-0.1983,-0.2007,-0.2031,-0.2053,-0.2079,-0.2119,-0.2132,-0.2217,-0.223,-0.2227,-0.2198,-0.2124,-0.1996,-0.1898,-0.1841,-0.1873,-0.1847,-0.1853,-0.175,-0.1765,-0.1709,-0.1883,-0.1767,-0.1769,-0.1771,-0.1773,-0.1774,-0.188,-0.1875,-0.1905,-0.1914,-0.194,-0.1944,-0.1926,-0.1978,-0.1983,-0.1978,-0.2042,-0.1967,-0.191,-0.175,-0.1686,-0.1571,-0.1645,-0.1537,-0.1586,-0.163,-0.1561,-0.1661,-0.1513,-0.1514,-0.1515,-0.1516,-0.1517,0,-0.1769,-0.1778,-0.1784,-0.1792,-0.1767,-0.1824,-0.1839,-0.1794,-0.1751,-0.178,-0.1748,-0.169,-0.1565,-0.1529,-0.1425,-0.1347,-0.1325,-0.1329,-0.1378,-0.1349,-0.1442,-0.1418,-0.1211,-0.1211,-0.1211,-0.1211,-0.1211,-0.1211,-0.1712,-0.1676,-0.1681,-0.1605,-0.1608,-0.1537,-0.1515,-0.1458,-0.1443,-0.1358,-0.135,-0.135,-0.1374,-0.1478,-0.1363,-0.1283,-0.1269,-0.1225,-0.1258,-0.1354,-0.1378,-0.1401,-0.1384,-0.1174,-0.1174,-0.1102,-0.1102,-0.1102]},{"header":{"parameterUnit":"m.s-1","parameterCategory":2,"la1":30.2991,"la2":30.254,"lo1":-89.0895,"lo2":-89.0444,"dy":0.0017,"dx":0.0017,"nx":28,"ny":28,"refTime":"2025-02-07T03:00:00:Z","depth":"0","parameterNumber":3,"parameterNumberName":"V-component_of_CURRENTS"},"data":[0,0,0,0,0,0,0,0,0,0,0,0,0,0,0,0,0,0,0,0,0,0,0,0,0,0,0,0,0,0,0,0,0,0,0,0,0,0,0,0,0,0,0,0,0,0,0,0,0,0,0,0,0,0,0,0,0,0,-0.0017,-0.0016,0,0.01,0.0101,0.0102,0.0212,0.0213,0.0215,0.0216,0.0383,0.0386,0.0389,0,0,0,0,0,0,0,0,0,0,0,0,0,-0.0099,-0.0099,-0.0017,-0.0016,-0.0014,0.0099,0.0101,0.0103,0.0212,0.0213,0.0215,0.0217,0.0381,0.0385,0.0389,0,0,0,0,0,0,0,0,0,0,0,0,0,-0.0032,-0.0098,-0.0017,0.0054,0.0062,0.0099,0.0101,0.0103,0.0211,0.0213,0.0215,0.0217,0.038,0.0385,0.0389,0.0377,0,0,0.0404,0.0406,0,0,0,0,0,0,0,0,-0.0036,-0.0029,0.0042,0.0049,0.0058,0.0144,0.0133,0.0197,0.0211,0.0154,0.0216,0.0218,0.0306,0.0317,0.0333,0.0385,0.0392,0.0404,0.0407,0.0409,0.0411,0,0,0,0,0,0,0,-0.0041,-0.0033,0.0029,0.0044,0.0053,0.0096,0.0108,0.0146,0.0218,0.0159,0.0168,0.018,0.0311,0.0328,0.0338,0.0394,0.0404,0.0408,0.0411,0.0413,0.0452,0.045,0,0,0,0,0,0,-0.0059,-0.0038,0.0025,0.0033,0.0016,0.0096,0.0109,0.0114,0.0217,0.0234,0.0178,0.0185,0.0319,0.0332,0.0344,0.0356,0.0409,0.0414,0.0416,0.0454,0.0452,0.045,0,0,0,0,0,0,-0.0062,-0.0055,0.0021,0.0001,0.0014,0.0095,0.01,0.0115,0.0138,0.023,0.0249,0.0186,0.0321,0.0338,0.0375,0.0362,0.0416,0.042,0.0456,0.0453,0.0451,0.0366,0,0,0,0,0,0,-0.0065,-0.0057,-0.0064,-0.0001,0.0014,0.0034,0.0098,0.0116,0.0142,0.0152,0.0243,0.0261,0.0324,0.0367,0.038,0.037,0.0424,0.0458,0.0455,0.0451,0.0371,0.036,0.0351,0,0,0,0,0,-0.0068,-0.0083,-0.0065,-0.0057,0.0003,0.0032,0.0043,0.0109,0.014,0.0138,0.0201,0.0258,0.0355,0.037,0.0385,0.0376,0.046,0.0456,0.0452,0.0375,0.0362,0.0352,0,0,0,0,0,0,-0.0117,-0.0072,-0.005,-0.005,-0.0018,0.0051,0.0058,0.0095,0.0141,0.0154,0.0241,0.0262,0.0288,0.0331,0.0345,0.0372,0.0413,0.0412,0.035,0.0339,0.0329,0.0328,0.0428,0,0,0,0,0,-0.0137,-0.0137,-0.0088,-0.0089,-0.0077,-0.0017,0.0003,0.0042,0.0093,0.0117,0.0178,0.0235,0.0278,0.0309,0.035,0.0366,0.0418,0.0365,0.0355,0.0347,0.0353,0.0404,0.0401,0.0436,0.0436,0.0436,0,0,-0.0153,-0.0131,-0.0129,-0.01,-0.0067,-0.006,0.0,0.002,0.0033,0.0125,0.0156,0.0203,0.0272,0.0295,0.031,0.0335,0.0361,0.0342,0.0335,0.0345,0.04,0.0397,0.0394,0.0434,0.0434,0.0435,0,0,-0.0192,-0.0173,-0.0187,-0.017,-0.0135,-0.0099,-0.0101,-0.0046,-0.0014,0.0012,0.008,0.0119,0.0181,0.0234,0.0268,0.0224,0.0304,0.0226,0.019,0.0239,0.0237,0.0237,0.0291,0.0296,0.0228,0.0227,0.0227,0,-0.0215,-0.0224,-0.0187,-0.0197,-0.0185,-0.0124,-0.0135,-0.01,-0.0039,-0.0018,0.001,0.0101,0.0157,0.0201,0.0188,0.0207,0.0248,0.0233,0.0229,0.023,0.023,0.0287,0.0294,0.0223,0.0223,0.0224,0.0224,0,-0.026,-0.0269,-0.0277,-0.0268,-0.0254,-0.0255,-0.0205,-0.0187,-0.0146,-0.0102,-0.0059,0.0015,0.0077,0.0088,0.0132,0.0156,0.0187,0.0208,0.0264,0.0222,0.0284,0.0292,0.0216,0.0218,0.0219,0.022,0,0,-0.0307,-0.031,-0.0312,-0.0323,-0.0293,-0.0287,-0.0272,-0.0238,-0.022,-0.0165,-0.0136,-0.0069,-0.0022,0.0017,0.0073,0.0116,0.0153,0.0158,0.0163,0.0222,0.0267,0.0306,0.032,0.0175,0.0176,0.0176,0.0306,0,-0.0353,-0.0396,-0.0376,-0.0405,-0.0422,-0.0369,-0.0359,-0.0319,-0.0268,-0.0227,-0.0147,-0.0101,-0.0051,-0.0022,0.0027,0.0124,0.0172,0.0117,0.029,0.0296,0.0345,0.033,0.0364,0.0484,0.0315,0.0316,0.0317,0,-0.0403,-0.0426,-0.0471,-0.0478,-0.0478,-0.048,-0.0448,-0.043,-0.0354,-0.0313,-0.0247,-0.0176,-0.0097,-0.0057,0.0098,0.006,0.0153,0.0228,0.0235,0.0312,0.0351,0.0499,0.0506,0.0649,0.0331,0.033,0.0329,0,-0.0461,-0.0489,-0.053,-0.0534,-0.053,-0.0531,-0.0518,-0.0458,-0.0439,-0.0362,-0.0331,-0.0226,-0.0163,-0.0044,0.0118,0.0108,0.0292,0.0301,0.0428,0.0432,0.0518,0.0528,0.0696,0.0406,0.0406,0.0406,0.0405,0,-0.0522,-0.0552,-0.0563,-0.0587,-0.0624,-0.0593,-0.0603,-0.0568,-0.0511,-0.0484,-0.038,-0.0322,-0.0158,-0.0026,0.0107,0.0303,0.0292,0.0428,0.0469,0.0486,0.0491,0.0665,0.0714,0.041,0.0409,0.0408,0.0408,0,-0.058,-0.0588,-0.0638,-0.0652,-0.0657,-0.0682,-0.067,-0.0667,-0.0603,-0.056,-0.0538,-0.0387,-0.0208,-0.003,0.0182,0.0298,0.057,0.0542,0.0554,0.0593,0.0822,0.0863,0.108,0.117,0.0695,0.0697,0.0699,0,-0.0615,-0.0648,-0.0694,-0.0726,-0.0735,-0.076,-0.0771,-0.0723,-0.0709,-0.0587,-0.0568,-0.039,-0.024,0.0089,0.0317,0.0566,0.0673,0.0735,0.0717,0.085,0.0926,0.0959,0.102,0.08,0.0802,0.0804,0.0806,0,-0.0677,-0.0692,-0.0733,-0.0803,-0.0833,-0.0862,-0.0867,-0.0867,-0.079,-0.0716,-0.058,-0.0447,-0.0125,0.0179,0.0491,0.064,0.0843,0.0778,0.0922,0.1029,0.1072,0.1172,0.0701,0.0822,0.082,0.0819,0.0818,0.0817,-0.0713,-0.0761,-0.0814,-0.0874,-0.0913,-0.0941,-0.0934,-0.0903,-0.0848,-0.0679,-0.0589,-0.0318,0.0067,0.052,0.0686,0.1036,0.0999,0.1142,0.1184,0.1209,0.1286,0.0846,0.1002,0.1001,0.1001,0.1,0.1,0,-0.0754,-0.0807,-0.0877,-0.0941,-0.0986,-0.0987,-0.0974,-0.0901,-0.0795,-0.0615,-0.0438,0.002,0.042,0.0784,0.1241,0.1434,0.1476,0.1528,0.1591,0.1636,0.1266,0.1261,0.1472,0.1472,0.1471,0.1471,0.1471,0.1471,-0.0777,-0.0853,-0.0892,-0.0978,-0.1016,-0.1003,-0.0973,-0.0815,-0.0648,-0.0292,0.0003,0.0218,0.0677,0.1347,0.1776,0.1816,0.1985,0.1967,0.2058,0.1801,0.1768,0.1737,0.1746,0.2055,0.2055,0.2426,0.2429,0.2432]}],[{"header":{"parameterUnit":"m.s-1","parameterCategory":2,"la1":30.2991,"la2":30.254,"lo1":-89.0895,"lo2":-89.0444,"dy":0.0017,"dx":0.0017,"nx":28,"ny":28,"refTime":"2025-02-07T03:00:00:Z","depth":"2","parameterNumber":2,"parameterNumberName":"U-component_of_CURRENTS"},"data":[0,0,0,0,0,0,0,0,0,0,0,0,0,0,0,0,0,0,0,0,0,0,0,0,0,0,0,0,0,0,0,0,0,0,0,0,0,0,0,0,0,0,0,0,0,0,0,0,0,0,0,0,0,0,0,0,0,0,-0.2077,-0.2077,0,-0.2111,-0.2112,-0.2112,-0.2105,-0.2104,-0.2104,-0.2103,-0.211,-0.2111,-0.2111,0,0,0,0,0,0,0,0,0,0,0,0,0,-0.1995,-0.1996,-0.2077,-0.2077,-0.2078,-0.2111,-0.2112,-0.2112,-0.2105,-0.2104,-0.2104,-0.2103,-0.211,-0.2111,-0.2111,0,0,0,0,0,0,0,0,0,0,0,0,0,-0.2028,-0.1997,-0.2076,-0.208,-0.2081,-0.2111,-0.2112,-0.2112,-0.2105,-0.2104,-0.2104,-0.2103,-0.211,-0.2111,-0.2111,-0.2128,0,0,-0.2114,-0.2114,0,0,0,0,0,0,0,0,-0.2026,-0.203,-0.2079,-0.208,-0.2081,-0.2105,-0.2085,-0.2117,-0.2105,-0.2093,-0.2103,-0.2103,-0.2108,-0.2109,-0.2114,-0.2128,-0.2129,-0.2114,-0.2115,-0.2115,-0.2115,0,0,0,0,0,0,0,-0.2023,-0.2029,-0.2088,-0.208,-0.2081,-0.2078,-0.2081,-0.2091,-0.2101,-0.2094,-0.2094,-0.2103,-0.2108,-0.2113,-0.2114,-0.2129,-0.2114,-0.2115,-0.2115,-0.2116,-0.2157,-0.2158,0,0,0,0,0,0,-0.2026,-0.2027,-0.2087,-0.2089,-0.2055,-0.208,-0.2084,-0.2096,-0.2101,-0.2103,-0.2103,-0.2102,-0.2112,-0.2113,-0.2114,-0.2138,-0.2115,-0.2116,-0.2116,-0.2157,-0.2158,-0.2158,0,0,0,0,0,0,-0.2024,-0.2031,-0.2085,-0.206,-0.2067,-0.2082,-0.2096,-0.2097,-0.2106,-0.2109,-0.2109,-0.2111,-0.2111,-0.2113,-0.213,-0.2138,-0.2116,-0.2117,-0.2156,-0.2157,-0.2158,-0.2183,0,0,0,0,0,0,-0.2022,-0.203,-0.2036,-0.2061,-0.2069,-0.2106,-0.2097,-0.2098,-0.2113,-0.2112,-0.2116,-0.2116,-0.2111,-0.2129,-0.213,-0.2138,-0.2117,-0.2155,-0.2157,-0.2158,-0.2182,-0.2185,-0.2188,0,0,0,0,0,-0.2019,-0.203,-0.2036,-0.2044,-0.2078,-0.2107,-0.2111,-0.2117,-0.2114,-0.2121,-0.2126,-0.2116,-0.2137,-0.213,-0.2132,-0.214,-0.2155,-0.2156,-0.2158,-0.218,-0.2184,-0.2188,0,0,0,0,0,0,-0.1995,-0.2032,-0.2039,-0.206,-0.2084,-0.2107,-0.2113,-0.2123,-0.2133,-0.213,-0.2129,-0.213,-0.2147,-0.2143,-0.2136,-0.2156,-0.2142,-0.2144,-0.2159,-0.2163,-0.2166,-0.2162,-0.2118,0,0,0,0,0,-0.1995,-0.2012,-0.2047,-0.2062,-0.2075,-0.2096,-0.2108,-0.2117,-0.2133,-0.2136,-0.2141,-0.2145,-0.2155,-0.2158,-0.2165,-0.218,-0.2165,-0.2185,-0.2188,-0.2191,-0.219,-0.2183,-0.2185,-0.2163,-0.2163,-0.2163,0,0,-0.1989,-0.2011,-0.202,-0.2058,-0.2073,-0.21,-0.2101,-0.2123,-0.2142,-0.2136,-0.2156,-0.2159,-0.2162,-0.2178,-0.2184,-0.2175,-0.2188,-0.2193,-0.2195,-0.2192,-0.2185,-0.2187,-0.2189,-0.2164,-0.2164,-0.2164,0,0,-0.1988,-0.2006,-0.2023,-0.2048,-0.2082,-0.21,-0.211,-0.2141,-0.2149,-0.2176,-0.2173,-0.2184,-0.2199,-0.2202,-0.2205,-0.2231,-0.2207,-0.2231,-0.2242,-0.2236,-0.2237,-0.2238,-0.2214,-0.2213,-0.223,-0.223,-0.223,0,-0.1978,-0.2006,-0.2031,-0.2058,-0.2077,-0.2103,-0.2127,-0.2147,-0.2178,-0.2187,-0.2183,-0.2206,-0.221,-0.2228,-0.2235,-0.2238,-0.2222,-0.2228,-0.2239,-0.224,-0.2241,-0.2216,-0.2214,-0.2231,-0.2231,-0.2231,-0.2231,0,-0.1994,-0.2019,-0.2031,-0.2074,-0.2099,-0.2123,-0.216,-0.2181,-0.2194,-0.221,-0.2231,-0.2237,-0.2247,-0.2252,-0.2253,-0.2263,-0.2245,-0.2245,-0.2228,-0.2244,-0.2217,-0.2215,-0.2233,-0.2233,-0.2232,-0.2232,0,0,-0.1961,-0.2029,-0.2032,-0.2056,-0.2109,-0.2131,-0.2168,-0.2205,-0.2224,-0.2245,-0.2262,-0.228,-0.2277,-0.2281,-0.2281,-0.2277,-0.227,-0.2264,-0.2263,-0.2236,-0.224,-0.2161,-0.2151,-0.227,-0.227,-0.227,-0.2215,0,-0.1962,-0.2011,-0.2046,-0.2088,-0.2116,-0.2156,-0.2189,-0.2225,-0.2247,-0.2271,-0.2279,-0.2295,-0.229,-0.2293,-0.2291,-0.2281,-0.2267,-0.2284,-0.2231,-0.2229,-0.2155,-0.2147,-0.1999,-0.1932,-0.2213,-0.2212,-0.2212,0,-0.1961,-0.1995,-0.2038,-0.2101,-0.2116,-0.2144,-0.2193,-0.2227,-0.227,-0.2286,-0.2301,-0.2308,-0.2315,-0.2306,-0.2285,-0.2294,-0.2266,-0.2252,-0.2249,-0.2165,-0.2146,-0.1963,-0.1917,-0.2208,-0.2209,-0.2209,-0.2209,0,-0.1919,-0.1987,-0.2018,-0.204,-0.2115,-0.2136,-0.2172,-0.2223,-0.2248,-0.2289,-0.2301,-0.2316,-0.2312,-0.2296,-0.2266,-0.2275,-0.2228,-0.2238,-0.2137,-0.2131,-0.1988,-0.1968,-0.2211,-0.2211,-0.2211,-0.2211,-0.2211,0,-0.1904,-0.1927,-0.2001,-0.2017,-0.2049,-0.2112,-0.2143,-0.2184,-0.2235,-0.2254,-0.2296,-0.2299,-0.2309,-0.2287,-0.2263,-0.2182,-0.2221,-0.2129,-0.211,-0.1991,-0.1974,-0.2205,-0.2205,-0.2209,-0.2209,-0.221,-0.221,0,-0.1848,-0.1902,-0.1936,-0.2009,-0.2029,-0.2048,-0.2117,-0.2138,-0.2198,-0.2222,-0.2232,-0.2277,-0.2246,-0.2234,-0.22,-0.2158,-0.2106,-0.2065,-0.1916,-0.188,-0.2014,-0.2016,-0.195,-0.1947,-0.1944,-0.1942,-0.194,0,-0.1823,-0.1836,-0.1906,-0.1919,-0.1948,-0.199,-0.2015,-0.2098,-0.2123,-0.2195,-0.2194,-0.2195,-0.2157,-0.2079,-0.2013,-0.1933,-0.2013,-0.1759,-0.1754,-0.1998,-0.1987,-0.1993,-0.1999,-0.1572,-0.1568,-0.1564,-0.1561,0,-0.1758,-0.1783,-0.1808,-0.1838,-0.1865,-0.1896,-0.1942,-0.1957,-0.2047,-0.2065,-0.2071,-0.2048,-0.1987,-0.1837,-0.1751,-0.1694,-0.1765,-0.1676,-0.1958,-0.1667,-0.1639,-0.163,-0.1648,-0.1526,-0.1529,-0.1532,-0.1534,-0.1535,-0.1691,-0.1689,-0.172,-0.1735,-0.1765,-0.1774,-0.1754,-0.1811,-0.182,-0.1815,-0.1886,-0.1798,-0.1779,-0.1557,-0.1466,-0.14,-0.1525,-0.1466,-0.1479,-0.1497,-0.1468,-0.1437,-0.128,-0.1282,-0.1284,-0.1285,-0.1287,0,-0.1597,-0.1605,-0.1614,-0.1626,-0.1605,-0.1661,-0.1675,-0.1626,-0.1583,-0.1609,-0.158,-0.1404,-0.1298,-0.1283,-0.112,-0.1085,-0.1087,-0.1045,-0.1057,-0.1091,-0.1122,-0.1076,-0.0783,-0.0782,-0.078,-0.0779,0,0,-0.1548,-0.1517,-0.1519,-0.145,-0.1454,-0.1372,-0.1344,-0.1293,-0.1271,-0.1192,-0.1151,-0.1229,-0.1244,-0.1021,-0.0962,-0.0845,-0.0959,-0.0799,-0.1202,-0.1249,-0.1278,-0.1362,-0.1329,0,0,0,0,0]},{"header":{"parameterUnit":"m.s-1","parameterCategory":2,"la1":30.2991,"la2":30.254,"lo1":-89.0895,"lo2":-89.0444,"dy":0.0017,"dx":0.0017,"nx":28,"ny":28,"refTime":"2025-02-07T03:00:00:Z","depth":"2","parameterNumber":3,"parameterNumberName":"V-component_of_CURRENTS"},"data":[0,0,0,0,0,0,0,0,0,0,0,0,0,0,0,0,0,0,0,0,0,0,0,0,0,0,0,0,0,0,0,0,0,0,0,0,0,0,0,0,0,0,0,0,0,0,0,0,0,0,0,0,0,0,0,0,0,0,-0.0248,-0.0247,0,-0.0188,-0.0187,-0.0187,-0.0147,-0.0147,-0.0146,-0.0146,-0.0038,-0.0035,-0.0033,0,0,0,0,0,0,0,0,0,0,0,0,0,-0.0278,-0.0278,-0.0248,-0.0247,-0.0246,-0.0188,-0.0187,-0.0187,-0.0147,-0.0147,-0.0146,-0.0146,-0.0039,-0.0036,-0.0032,0,0,0,0,0,0,0,0,0,0,0,0,0,-0.0246,-0.0278,-0.0248,-0.022,-0.0217,-0.0188,-0.0187,-0.0186,-0.0147,-0.0147,-0.0146,-0.0146,-0.004,-0.0036,-0.0032,-0.0014,0,0,-0.002,-0.0018,0,0,0,0,0,0,0,0,-0.0248,-0.0245,-0.0225,-0.0222,-0.0218,-0.0175,-0.0158,-0.0127,-0.0147,-0.0173,-0.0146,-0.0146,-0.008,-0.0072,-0.0062,-0.0009,-0.0005,-0.0019,-0.0017,-0.0015,-0.0014,0,0,0,0,0,0,0,-0.025,-0.0247,-0.0224,-0.0224,-0.022,-0.0193,-0.0189,-0.0152,-0.0128,-0.0171,-0.0168,-0.0162,-0.0077,-0.0066,-0.0059,-0.0003,-0.0019,-0.0016,-0.0013,-0.0012,0.0089,0.0089,0,0,0,0,0,0,-0.0261,-0.0249,-0.0226,-0.0222,-0.0233,-0.0193,-0.0188,-0.0189,-0.0129,-0.012,-0.0162,-0.016,-0.0073,-0.0064,-0.0055,-0.0028,-0.0015,-0.0012,-0.0009,0.0089,0.0089,0.009,0,0,0,0,0,0,-0.0262,-0.026,-0.0228,-0.0234,-0.0228,-0.0194,-0.0194,-0.0188,-0.0175,-0.0123,-0.0113,-0.0156,-0.0072,-0.0061,-0.0019,-0.0023,-0.001,-0.0006,0.0089,0.0089,0.0089,0.0025,0,0,0,0,0,0,-0.0264,-0.0261,-0.0267,-0.0235,-0.0228,-0.0218,-0.0194,-0.0187,-0.0172,-0.0169,-0.0114,-0.0104,-0.0071,-0.0025,-0.0015,-0.0017,-0.0003,0.0088,0.0089,0.0089,0.0027,0.0024,0.0021,0,0,0,0,0,-0.0265,-0.0278,-0.0268,-0.0265,-0.0237,-0.0218,-0.0212,-0.0186,-0.0172,-0.0172,-0.0129,-0.0106,-0.0015,-0.0022,-0.001,-0.0011,0.0088,0.0089,0.0089,0.0029,0.0024,0.0021,0,0,0,0,0,0,-0.0295,-0.0274,-0.0262,-0.0268,-0.0247,-0.0212,-0.021,-0.0189,-0.0156,-0.0151,-0.01,-0.0087,-0.0054,-0.002,-0.0029,0.0021,0.004,0.0043,-0.001,-0.0014,-0.0017,-0.0032,0.0,0,0,0,0,0,-0.0305,-0.0309,-0.028,-0.0285,-0.0277,-0.0243,-0.0232,-0.0214,-0.018,-0.0166,-0.0126,-0.0081,-0.0043,-0.0019,0.0018,0.0048,0.0085,0.0056,0.0052,0.0049,0.0046,0.0099,0.01,0.0092,0.0092,0.0092,0,0,-0.0317,-0.0307,-0.0308,-0.0291,-0.0273,-0.0269,-0.0236,-0.0225,-0.0216,-0.0158,-0.0134,-0.0092,-0.0037,-0.0007,0.0011,0.0022,0.0072,0.005,0.0047,0.0046,0.01,0.0101,0.0101,0.0092,0.0092,0.0092,0,0,-0.0347,-0.0335,-0.0348,-0.0335,-0.0313,-0.0291,-0.0289,-0.0255,-0.0235,-0.0205,-0.0162,-0.0121,-0.0064,-0.0025,0.0003,0.0007,0.005,0.0017,-0.001,0.0041,0.0042,0.0044,0.009,0.0096,0.0018,0.0017,0.0017,0,-0.0363,-0.0375,-0.0348,-0.0356,-0.0349,-0.0304,-0.0313,-0.0286,-0.0241,-0.0222,-0.0206,-0.0116,-0.0072,-0.0026,-0.0028,-0.0002,0.0032,-0.0003,0.0036,0.0038,0.004,0.0087,0.0095,0.0014,0.0015,0.0015,0.0015,0,-0.04,-0.0408,-0.0415,-0.0409,-0.0397,-0.0398,-0.0359,-0.0339,-0.0307,-0.0274,-0.0224,-0.016,-0.0105,-0.0087,-0.0056,-0.0019,0.0001,0.0021,0.004,0.0037,0.0087,0.0096,0.001,0.0011,0.0012,0.0013,0,0,-0.0439,-0.0442,-0.0443,-0.0453,-0.0427,-0.0422,-0.0404,-0.0373,-0.0357,-0.0304,-0.0276,-0.0208,-0.0168,-0.0134,-0.0086,-0.0042,0.0002,-0.0012,-0.0007,0.0024,0.0112,0.0131,0.0143,0.0025,0.0026,0.0027,0.0139,0,-0.0476,-0.0511,-0.0494,-0.0516,-0.0529,-0.0484,-0.0472,-0.0435,-0.0388,-0.0348,-0.0273,-0.0229,-0.0187,-0.0161,-0.011,-0.0027,0.0022,-0.0031,0.012,0.0124,0.0133,0.0152,0.013,0.0228,0.0148,0.0149,0.015,0,-0.0517,-0.0535,-0.0571,-0.0574,-0.0574,-0.0575,-0.0543,-0.0525,-0.0452,-0.0415,-0.035,-0.0287,-0.021,-0.0177,-0.0034,-0.0071,0.0012,0.0078,0.0084,0.013,0.016,0.0221,0.0247,0.0166,0.0164,0.0163,0.0162,0,-0.0565,-0.0586,-0.0619,-0.0621,-0.0616,-0.0616,-0.0603,-0.0547,-0.0529,-0.0453,-0.0424,-0.0323,-0.0267,-0.0155,-0.0016,-0.0024,0.0141,0.0153,0.0253,0.0256,0.0281,0.0284,0.0256,0.0256,0.0256,0.0256,0.0255,0,-0.0614,-0.0638,-0.0647,-0.0667,-0.0697,-0.0669,-0.0675,-0.0642,-0.0588,-0.0563,-0.0464,-0.0412,-0.026,-0.0144,-0.0023,0.0143,0.0144,0.0255,0.0289,0.0259,0.0258,0.0238,0.0234,0.026,0.0259,0.0258,0.0257,0,-0.0662,-0.0668,-0.0709,-0.072,-0.0725,-0.0746,-0.0736,-0.0733,-0.0673,-0.0633,-0.0612,-0.0474,-0.0318,-0.0158,0.0035,0.0136,0.029,0.035,0.0301,0.0327,0.0372,0.0364,0.0472,0.0474,0.0475,0.0477,0.0478,0,-0.0692,-0.0719,-0.0758,-0.0787,-0.0796,-0.0817,-0.0828,-0.0784,-0.0771,-0.0663,-0.0645,-0.0489,-0.036,-0.0072,0.0126,0.0345,0.0345,0.0444,0.0428,0.0373,0.0396,0.0385,0.0375,0.0441,0.0441,0.0442,0.0442,0,-0.0745,-0.0758,-0.0792,-0.0855,-0.0884,-0.0911,-0.0917,-0.0918,-0.0849,-0.0786,-0.0669,-0.0555,-0.0278,-0.0037,0.0232,0.0355,0.0403,0.0462,0.0437,0.038,0.035,0.0369,0.036,0.0447,0.0446,0.0446,0.0445,0.0445,-0.0777,-0.0817,-0.0864,-0.0919,-0.0957,-0.0988,-0.0998,-0.0973,-0.093,-0.0809,-0.0696,-0.0489,-0.0272,0.0123,0.031,0.0479,0.0476,0.0522,0.0518,0.0514,0.048,0.0454,0.0564,0.0564,0.0564,0.0564,0.0565,0,-0.0817,-0.0861,-0.0922,-0.0985,-0.1033,-0.1035,-0.1042,-0.1019,-0.0953,-0.0804,-0.0654,-0.0387,-0.0105,0.0122,0.0395,0.0554,0.0536,0.0575,0.0521,0.0516,0.0512,0.0476,0.056,0.0561,0.0561,0.0561,0,0,-0.0839,-0.0905,-0.0938,-0.1028,-0.107,-0.11,-0.1097,-0.1036,-0.0928,-0.0765,-0.0592,-0.0367,-0.009,0.0102,0.03,0.044,0.0435,0.045,0.0438,0.0347,0.034,0.0468,0.0405,0,0,0,0,0]}],[{"header":{"parameterUnit":"m.s-1","parameterCategory":2,"la1":30.2991,"la2":30.254,"lo1":-89.0895,"lo2":-89.0444,"dy":0.0017,"dx":0.0017,"nx":28,"ny":28,"refTime":"2025-02-07T03:00:00:Z","depth":"4","parameterNumber":2,"parameterNumberName":"U-component_of_CURRENTS"},"data":[0,0,0,0,0,0,0,0,0,0,0,0,0,0,0,0,0,0,0,0,0,0,0,0,0,0,0,0,0,0,0,0,0,0,0,0,0,0,0,0,0,0,0,0,0,0,0,0,0,0,0,0,0,0,0,0,0,0,-0.1434,-0.1434,0,-0.1483,-0.1484,-0.1484,-0.1504,-0.1504,-0.1504,-0.1504,-0.1545,-0.1546,-0.1547,0,0,0,0,0,0,0,0,0,0,0,0,0,-0.1361,-0.1362,-0.1434,-0.1434,-0.1435,-0.1483,-0.1484,-0.1484,-0.1504,-0.1504,-0.1504,-0.1504,-0.1544,-0.1546,-0.1547,0,0,0,0,0,0,0,0,0,0,0,0,0,-0.1399,-0.1363,-0.1433,-0.1451,-0.1453,-0.1483,-0.1484,-0.1485,-0.1504,-0.1504,-0.1504,-0.1504,-0.1544,-0.1545,-0.1547,-0.1558,0,0,-0.1552,-0.1553,0,0,0,0,0,0,0,0,-0.1397,-0.1401,-0.1448,-0.145,-0.1453,-0.1488,-0.1473,-0.1509,-0.1504,-0.1483,-0.1504,-0.1504,-0.1526,-0.1529,-0.1537,-0.156,-0.1562,-0.1552,-0.1553,-0.1554,-0.1555,0,0,0,0,0,0,0,-0.1394,-0.1399,-0.1452,-0.1449,-0.1452,-0.1459,-0.1464,-0.148,-0.1503,-0.1485,-0.1487,-0.1494,-0.1527,-0.1535,-0.1538,-0.1563,-0.1552,-0.1554,-0.1555,-0.1556,-0.1669,-0.1671,0,0,0,0,0,0,-0.139,-0.1397,-0.1451,-0.1454,-0.1425,-0.146,-0.1466,-0.1476,-0.1503,-0.1508,-0.1494,-0.1495,-0.1532,-0.1536,-0.1539,-0.1609,-0.1554,-0.1556,-0.1557,-0.1667,-0.167,-0.1672,0,0,0,0,0,0,-0.1388,-0.1394,-0.1449,-0.1427,-0.1435,-0.1462,-0.1473,-0.1477,-0.151,-0.1511,-0.1515,-0.1525,-0.1532,-0.1537,-0.1582,-0.1608,-0.1556,-0.1558,-0.1665,-0.1668,-0.1671,-0.1712,0,0,0,0,0,0,-0.1386,-0.1394,-0.1411,-0.1427,-0.1436,-0.1482,-0.1473,-0.1478,-0.1513,-0.1515,-0.1538,-0.154,-0.1533,-0.1579,-0.1583,-0.161,-0.1559,-0.1662,-0.1666,-0.167,-0.1708,-0.1716,-0.1723,0,0,0,0,0,-0.1383,-0.1401,-0.1412,-0.1419,-0.1455,-0.1483,-0.1489,-0.1507,-0.1515,-0.1535,-0.1556,-0.1541,-0.1606,-0.1583,-0.1587,-0.1614,-0.166,-0.1665,-0.1669,-0.1705,-0.1715,-0.1723,0,0,0,0,0,0,-0.1377,-0.1405,-0.1417,-0.1443,-0.1471,-0.1488,-0.151,-0.1525,-0.1558,-0.1566,-0.1566,-0.1571,-0.1619,-0.1619,-0.1593,-0.1661,-0.1631,-0.1637,-0.1657,-0.1666,-0.1673,-0.1662,-0.1561,0,0,0,0,0,-0.1385,-0.1408,-0.1435,-0.1458,-0.1475,-0.15,-0.1519,-0.1534,-0.1559,-0.1574,-0.1593,-0.1615,-0.1638,-0.1654,-0.1673,-0.1711,-0.1692,-0.1734,-0.1741,-0.1747,-0.1744,-0.1747,-0.1753,-0.1687,-0.1686,-0.1686,0,0,-0.1389,-0.1408,-0.1423,-0.146,-0.1482,-0.1511,-0.1511,-0.1548,-0.1579,-0.1573,-0.1628,-0.1644,-0.1656,-0.1698,-0.1719,-0.1702,-0.1758,-0.1753,-0.1758,-0.1751,-0.1752,-0.1758,-0.1763,-0.169,-0.1689,-0.1689,0,0,-0.14,-0.1429,-0.1451,-0.1478,-0.152,-0.1536,-0.1555,-0.1592,-0.1618,-0.1669,-0.1673,-0.1709,-0.1749,-0.1759,-0.1767,-0.1831,-0.1798,-0.1844,-0.187,-0.1873,-0.1878,-0.1882,-0.1861,-0.1863,-0.1846,-0.1846,-0.1846,0,-0.1407,-0.1436,-0.1462,-0.1491,-0.1518,-0.1552,-0.1583,-0.1615,-0.1665,-0.1688,-0.1695,-0.1761,-0.1774,-0.1812,-0.1836,-0.1845,-0.1833,-0.183,-0.188,-0.1883,-0.1886,-0.1865,-0.1866,-0.1849,-0.1848,-0.1848,-0.1848,0,-0.1425,-0.1463,-0.148,-0.1527,-0.156,-0.1595,-0.1639,-0.1682,-0.1718,-0.1743,-0.1803,-0.1825,-0.1857,-0.1875,-0.1875,-0.1912,-0.1891,-0.1887,-0.1849,-0.1895,-0.187,-0.187,-0.1852,-0.1851,-0.1851,-0.185,0,0,-0.1402,-0.1479,-0.1487,-0.1519,-0.1585,-0.1611,-0.167,-0.1724,-0.1761,-0.1814,-0.1855,-0.1905,-0.1915,-0.1927,-0.1935,-0.1943,-0.1958,-0.1929,-0.1928,-0.1893,-0.1949,-0.1814,-0.1801,-0.1961,-0.1962,-0.1963,-0.192,0,-0.1411,-0.1467,-0.1506,-0.1568,-0.1601,-0.1656,-0.1706,-0.1762,-0.1808,-0.1858,-0.1889,-0.1932,-0.1935,-0.1955,-0.1966,-0.1964,-0.1963,-0.1969,-0.1923,-0.1921,-0.1782,-0.1798,-0.1964,-0.192,-0.192,-0.192,-0.192,0,-0.141,-0.1451,-0.1512,-0.1592,-0.1613,-0.1658,-0.1739,-0.1788,-0.1859,-0.1894,-0.1938,-0.196,-0.1993,-0.1986,-0.1991,-0.1995,-0.1977,-0.1966,-0.1964,-0.182,-0.1786,-0.1868,-0.192,-0.192,-0.192,-0.192,-0.192,0,-0.1367,-0.1452,-0.1502,-0.1531,-0.1626,-0.167,-0.1723,-0.1801,-0.184,-0.1916,-0.1941,-0.1985,-0.2002,-0.2001,-0.1983,-0.1993,-0.1966,-0.1974,-0.183,-0.1819,-0.1935,-0.1931,-0.1966,-0.1966,-0.1966,-0.1966,-0.1966,0,-0.1346,-0.1389,-0.1493,-0.1519,-0.158,-0.1656,-0.1721,-0.1779,-0.1854,-0.1885,-0.1953,-0.1965,-0.2008,-0.1998,-0.1984,-0.1891,-0.1963,-0.1823,-0.1798,-0.1954,-0.1954,-0.1934,-0.1931,-0.1965,-0.1965,-0.1965,-0.1966,0,-0.1285,-0.1357,-0.1417,-0.1525,-0.1561,-0.1604,-0.1709,-0.1744,-0.1829,-0.1867,-0.189,-0.1951,-0.1931,-0.194,-0.1926,-0.1865,-0.1811,-0.176,-0.1908,-0.1894,-0.1664,-0.1664,-0.1595,-0.159,-0.1585,-0.1582,-0.1579,0,-0.1256,-0.1283,-0.1402,-0.1435,-0.1488,-0.1566,-0.161,-0.1716,-0.1745,-0.1834,-0.1831,-0.1853,-0.1872,-0.1728,-0.1767,-0.1704,-0.1688,-0.1647,-0.1672,-0.1642,-0.1625,-0.1632,-0.1638,-0.1572,-0.1571,-0.1569,-0.1568,0,-0.119,-0.1245,-0.1293,-0.136,-0.1419,-0.1471,-0.1543,-0.155,-0.1653,-0.1747,-0.1712,-0.1689,-0.1656,-0.1631,-0.1581,-0.1548,-0.1671,-0.1601,-0.1611,-0.1634,-0.1613,-0.1602,-0.1613,-0.1553,-0.1555,-0.1557,-0.1558,0,-0.1138,-0.1152,-0.1219,-0.1263,-0.1331,-0.1345,-0.1403,-0.1425,-0.1464,-0.1566,-0.1548,-0.1574,-0.1633,-0.1547,-0.151,-0.1454,-0.1441,-0.1399,-0.1419,-0.1436,-0.1404,-0.1356,-0.1182,0,0,0,0,0,-0.1077,-0.1078,-0.1113,-0.1154,-0.1214,-0.1246,-0.1338,-0.1396,-0.1497,-0.1425,-0.1481,-0.1444,-0.1385,-0.1406,-0.1312,-0.1443,-0.145,-0.1329,-0.1414,-0.1469,-0.1486,-0.1463,0,0,0,0,0,0,-0.1036,-0.1067,-0.1073,-0.1044,-0.1046,-0.1093,-0.1142,-0.1217,-0.1187,-0.1293,-0.1264,-0.1345,-0.1307,-0.1401,-0.1276,-0.128,-0.1302,-0.1357,-0.1353,-0.1459,-0.1475,-0.1489,-0.1471,0,0,0,0,0]},{"header":{"parameterUnit":"m.s-1","parameterCategory":2,"la1":30.2991,"la2":30.254,"lo1":-89.0895,"lo2":-89.0444,"dy":0.0017,"dx":0.0017,"nx":28,"ny":28,"refTime":"2025-02-07T03:00:00:Z","depth":"4","parameterNumber":3,"parameterNumberName":"V-component_of_CURRENTS"},"data":[0,0,0,0,0,0,0,0,0,0,0,0,0,0,0,0,0,0,0,0,0,0,0,0,0,0,0,0,0,0,0,0,0,0,0,0,0,0,0,0,0,0,0,0,0,0,0,0,0,0,0,0,0,0,0,0,0,0,-0.0243,-0.0243,0,-0.0215,-0.0214,-0.0214,-0.0202,-0.0202,-0.0203,-0.0203,-0.0144,-0.0142,-0.0141,0,0,0,0,0,0,0,0,0,0,0,0,0,-0.0244,-0.0244,-0.0243,-0.0242,-0.0242,-0.0215,-0.0214,-0.0214,-0.0202,-0.0202,-0.0203,-0.0203,-0.0145,-0.0143,-0.0141,0,0,0,0,0,0,0,0,0,0,0,0,0,-0.0232,-0.0244,-0.0243,-0.0234,-0.0233,-0.0215,-0.0214,-0.0214,-0.0202,-0.0202,-0.0203,-0.0203,-0.0145,-0.0143,-0.014,-0.0121,0,0,-0.0133,-0.0131,0,0,0,0,0,0,0,0,-0.0232,-0.0231,-0.0235,-0.0234,-0.0233,-0.0213,-0.0193,-0.0181,-0.0202,-0.0213,-0.0203,-0.0203,-0.0165,-0.016,-0.0154,-0.0118,-0.0115,-0.0132,-0.0131,-0.013,-0.0129,0,0,0,0,0,0,0,-0.0233,-0.0232,-0.0231,-0.0235,-0.0234,-0.0216,-0.0215,-0.0191,-0.0187,-0.0212,-0.0211,-0.0209,-0.0164,-0.0157,-0.0152,-0.0114,-0.0132,-0.013,-0.0129,-0.0128,-0.0038,-0.0037,0,0,0,0,0,0,-0.024,-0.0233,-0.0232,-0.023,-0.0234,-0.0216,-0.0215,-0.0219,-0.0188,-0.0184,-0.0209,-0.0209,-0.0161,-0.0155,-0.015,-0.0128,-0.013,-0.0127,-0.0126,-0.0039,-0.0038,-0.0037,0,0,0,0,0,0,-0.0241,-0.0241,-0.0233,-0.0231,-0.0229,-0.0217,-0.022,-0.0218,-0.0214,-0.0186,-0.0181,-0.0208,-0.0161,-0.0154,-0.0125,-0.0126,-0.0126,-0.0124,-0.004,-0.0038,-0.0037,-0.0082,0,0,0,0,0,0,-0.0241,-0.0241,-0.0248,-0.0232,-0.023,-0.0229,-0.022,-0.0217,-0.0212,-0.0212,-0.0183,-0.0178,-0.016,-0.0129,-0.0123,-0.0122,-0.0122,-0.0041,-0.0039,-0.0037,-0.0081,-0.0082,-0.0083,0,0,0,0,0,-0.0241,-0.0252,-0.0249,-0.0248,-0.0239,-0.0229,-0.0226,-0.0217,-0.0212,-0.0213,-0.0187,-0.0179,-0.0114,-0.0126,-0.0119,-0.0118,-0.0041,-0.0039,-0.0038,-0.0081,-0.0082,-0.0083,0,0,0,0,0,0,-0.0257,-0.0251,-0.0247,-0.0256,-0.0246,-0.0227,-0.0229,-0.0219,-0.0199,-0.0198,-0.017,-0.0162,-0.0138,-0.0115,-0.0129,-0.0084,-0.0075,-0.0072,-0.0111,-0.0111,-0.0112,-0.0129,-0.012,0,0,0,0,0,-0.0264,-0.0271,-0.0257,-0.0265,-0.0261,-0.0244,-0.024,-0.0232,-0.0213,-0.0205,-0.0182,-0.0152,-0.0123,-0.0108,-0.0081,-0.0057,-0.0029,-0.0048,-0.0049,-0.005,-0.0056,-0.0007,-0.0004,-0.003,-0.003,-0.003,0,0,-0.0272,-0.027,-0.0274,-0.0269,-0.026,-0.026,-0.0242,-0.0239,-0.0235,-0.02,-0.0187,-0.0156,-0.0116,-0.0092,-0.0078,-0.0074,-0.0026,-0.0047,-0.0049,-0.0054,-0.0004,-0.0002,0.0,-0.0029,-0.0029,-0.0029,0,0,-0.0293,-0.0291,-0.0303,-0.0296,-0.0288,-0.0275,-0.0275,-0.0256,-0.0246,-0.0226,-0.0197,-0.0164,-0.0126,-0.0095,-0.0075,-0.0059,-0.0033,-0.0049,-0.0068,-0.002,-0.0018,-0.0016,0.0022,0.0028,-0.0048,-0.0048,-0.0049,0,-0.0305,-0.0318,-0.0303,-0.0311,-0.0311,-0.0284,-0.0293,-0.0276,-0.0249,-0.0236,-0.0228,-0.0157,-0.0127,-0.0088,-0.0084,-0.0063,-0.0036,-0.0074,-0.0023,-0.002,-0.0018,0.0021,0.0027,-0.005,-0.005,-0.005,-0.005,0,-0.0331,-0.0342,-0.0348,-0.035,-0.0344,-0.0348,-0.0324,-0.0312,-0.0293,-0.027,-0.0231,-0.0182,-0.014,-0.0122,-0.0102,-0.0064,-0.0051,-0.0034,-0.0029,-0.0018,0.0022,0.003,-0.0053,-0.0052,-0.0052,-0.0051,0,0,-0.0356,-0.0366,-0.0369,-0.0379,-0.0367,-0.0366,-0.0355,-0.0335,-0.0326,-0.0288,-0.0267,-0.0211,-0.0181,-0.0154,-0.0116,-0.0076,-0.0032,-0.0054,-0.005,-0.0031,0.0066,0.0047,0.0054,-0.001,-0.0009,-0.0008,0.0084,0,-0.0381,-0.0412,-0.0404,-0.0426,-0.0438,-0.0412,-0.0405,-0.0381,-0.0349,-0.032,-0.0259,-0.0226,-0.0193,-0.0173,-0.0127,-0.0057,-0.0013,-0.006,0.0065,0.0068,0.0039,0.0062,-0.0004,0.009,0.0092,0.0094,0.0095,0,-0.0408,-0.0426,-0.0459,-0.047,-0.0472,-0.0479,-0.0462,-0.0451,-0.0398,-0.0371,-0.0319,-0.027,-0.0204,-0.0178,-0.0055,-0.0088,-0.0017,0.0038,0.0043,0.0045,0.0065,0.0081,0.0109,0.0108,0.0107,0.0106,0.0105,0,-0.0437,-0.0462,-0.0492,-0.0497,-0.0503,-0.051,-0.0508,-0.047,-0.046,-0.0401,-0.0381,-0.0294,-0.025,-0.0152,-0.004,-0.0044,0.0094,0.0109,0.0162,0.0162,0.0168,0.0165,0.02,0.02,0.02,0.02,0.0199,0,-0.0464,-0.0489,-0.0513,-0.0531,-0.0564,-0.0551,-0.0566,-0.0544,-0.0509,-0.0492,-0.0413,-0.0372,-0.0242,-0.0146,-0.0045,0.0078,0.0098,0.016,0.0186,0.0149,0.0142,0.0174,0.017,0.0203,0.0202,0.0202,0.0201,0,-0.0488,-0.0504,-0.0545,-0.0571,-0.0582,-0.0606,-0.0618,-0.0619,-0.058,-0.0552,-0.0536,-0.0426,-0.03,-0.0168,-0.0003,0.0067,0.0189,0.0231,0.0174,0.0195,0.0227,0.022,0.03,0.03,0.03,0.03,0.03,0,-0.0502,-0.0527,-0.0582,-0.0614,-0.0632,-0.0664,-0.0683,-0.0661,-0.0652,-0.0578,-0.0561,-0.0443,-0.0356,-0.0132,-0.0002,0.0188,0.0213,0.0268,0.0252,0.0221,0.0239,0.0231,0.0224,0.03,0.03,0.03,0.03,0,-0.0526,-0.0552,-0.0586,-0.0656,-0.0695,-0.073,-0.0748,-0.0746,-0.0704,-0.0673,-0.0562,-0.0438,-0.0298,-0.0129,0.0013,0.0149,0.0224,0.027,0.0271,0.0256,0.0223,0.0238,0.0231,0.0301,0.0301,0.0301,0.0301,0,-0.0543,-0.0578,-0.0631,-0.0685,-0.0742,-0.0773,-0.0781,-0.0752,-0.0732,-0.0638,-0.0603,-0.0437,-0.034,-0.0148,-0.0014,0.011,0.0142,0.0174,0.018,0.0181,0.0112,0.005,0.01,0,0,0,0,0,-0.0555,-0.0595,-0.0654,-0.0714,-0.0771,-0.0797,-0.0812,-0.0804,-0.0763,-0.0687,-0.0638,-0.0497,-0.0281,-0.0185,-0.006,-0.003,0.0143,0.0116,0.0178,0.0303,0.0303,0.0239,0,0,0,0,0,0,-0.0565,-0.0624,-0.0653,-0.0723,-0.0766,-0.0816,-0.0826,-0.08,-0.0743,-0.0683,-0.0562,-0.0483,-0.0272,-0.0349,-0.0062,-0.0025,0.0027,0.0223,0.0225,0.0304,0.0303,0.0303,0.0237,0,0,0,0,0]}]]